Data No, UTC Date,UTC Time,Latitude,Longitude,Course(deg),Temp(degC),pH
955,2020/2/3,16:02,35-35.79N,139-47.17E,210,12.141,7.95
956,2020/2/3,16:03,35-35.66N,139-47.13E,187,11.96,7.95
957,2020/2/3,16:04,35-35.50N,139-47.17E,161,11.655,7.95
958,2020/2/3,16:05,35-35.43N,139-47.21E,151,11.623,7.95
959,2020/2/3,16:06,35-35.30N,139-47.33E,140,11.861,7.96
960,2020/2/3,16:07,35-35.15N,139-47.49E,140,12.385,7.96
961,2020/2/3,16:08,35-34.97N,139-47.67E,141,12.389,7.96
962,2020/2/3,16:10,35-34.58N,139-48.05E,137,12.479,7.96
963,2020/2/3,16:11,35-34.34N,139-48.39E,127,12.469,7.97
964,2020/2/3,16:12,35-34.28N,139-48.49E,126,12.474,7.98
965,2020/2/3,16:13,35-34.14N,139-48.72E,126,12.3,7.98
966,2020/2/3,16:14,35-34.00N,139-48.95E,126,12.154,7.99
967,2020/2/3,16:15,35-33.87N,139-49.18E,125,12.164,7.99
968,2020/2/3,16:16,35-33.72N,139-49.42E,126,12.202,8
969,2020/2/3,16:17,35-33.57N,139-49.66E,127,12.128,8
970,2020/2/3,16:18,35-33.32N,139-50.05E,129,12.129,8.01
971,2020/2/3,16:19,35-33.18N,139-50.26E,129,12.087,8.01
972,2020/2/3,16:20,35-33.02N,139-50.49E,131,11.901,8.01
973,2020/2/3,16:21,35-32.76N,139-50.70E,154,11.092,8.01
974,2020/2/3,16:22,35-32.45N,139-50.78E,171,11.179,8.01
975,2020/2/3,16:23,35-32.17N,139-50.82E,174,11.369,8.02
976,2020/2/3,16:24,35-31.87N,139-50.86E,174,11.37,8.02
977,2020/2/3,16:25,35-31.57N,139-50.89E,175,11.485,8.01
978,2020/2/3,16:26,35-31.21N,139-50.93E,174,11.517,8.01
979,2020/2/3,16:27,35-30.94N,139-50.96E,174,11.571,8.02
980,2020/2/3,16:28,35-30.62N,139-50.97E,178,11.638,8.02
981,2020/2/3,16:29,35-30.31N,139-50.96E,182,11.703,8.03
982,2020/2/3,16:30,35-29.99N,139-50.91E,187,11.668,8.04
983,2020/2/3,16:31,35-29.66N,139-50.80E,199,11.811,8.03
984,2020/2/3,16:32,35-29.41N,139-50.63E,208,11.821,8.04
985,2020/2/3,16:33,35-29.13N,139-50.44E,209,11.632,8.04
986,2020/2/3,16:34,35-28.88N,139-50.19E,222,11.844,8.04
987,2020/2/3,16:35,35-28.69N,139-49.89E,235,11.82,8.03
988,2020/2/3,16:36,35-28.51N,139-49.59E,233,11.699,8.03
989,2020/2/3,16:37,35-28.30N,139-49.23E,233,11.509,8.04
990,2020/2/3,16:38,35-28.07N,139-48.87E,231,11.424,8.04
991,2020/2/3,16:39,35-27.89N,139-48.59E,230,11.373,8.04
992,2020/2/3,16:40,35-27.74N,139-48.37E,230,11.363,8.04
993,2020/2/3,16:41,35-27.54N,139-48.06E,230,11.372,8.05
994,2020/2/3,16:42,35-27.29N,139-47.69E,231,11.324,8.05
995,2020/2/3,16:43,35-27.12N,139-47.43E,231,11.356,8.05
996,2020/2/3,16:44,35-26.90N,139-47.09E,231,11.428,8.05
997,2020/2/3,16:45,35-26.69N,139-46.77E,230,11.446,8.05
998,2020/2/3,16:46,35-26.47N,139-46.46E,229,11.462,8.05
999,2020/2/3,16:47,35-26.32N,139-46.25E,228,11.469,8.05
1000,2020/2/3,16:48,35-26.10N,139-45.95E,228,11.494,8.05
1001,2020/2/3,16:49,35-25.89N,139-45.60E,233,11.506,8.05
1002,2020/2/3,16:50,35-25.75N,139-45.31E,239,11.477,8.05
1003,2020/2/3,16:51,35-25.55N,139-44.88E,240,11.484,8.05
1004,2020/2/3,16:52,35-25.42N,139-44.59E,240,11.485,8.06
1005,2020/2/3,16:53,35-25.29N,139-44.29E,242,11.51,8.05
1006,2020/2/3,16:54,35-25.15N,139-43.94E,244,11.709,8.06
1007,2020/2/3,16:55,35-24.99N,139-43.60E,239,11.811,8.05
1008,2020/2/3,16:56,35-24.81N,139-43.28E,233,11.781,8.06
1009,2020/2/3,16:57,35-24.55N,139-42.94E,223,11.816,8.06
1010,2020/2/3,16:58,35-24.36N,139-42.76E,212,11.822,8.05
1011,2020/2/3,16:59,35-24.06N,139-42.56E,210,11.772,8.06
1012,2020/2/3,17:00,35-23.80N,139-42.40E,204,11.771,8.06
1013,2020/2/3,17:01,35-23.50N,139-42.24E,204,11.821,8.06
1014,2020/2/3,17:02,35-23.23N,139-42.09E,204,11.823,8.06
1015,2020/2/3,17:03,35-22.92N,139-41.91E,204,11.741,8.06
1016,2020/2/3,17:04,35-22.61N,139-41.77E,197,11.557,8.05
1017,2020/2/3,17:05,35-22.32N,139-41.70E,189,11.536,8.06
1018,2020/2/3,17:06,35-22.00N,139-41.70E,175,11.529,8.06
1019,2020/2/3,17:07,35-21.70N,139-41.76E,169,11.526,8.06
1020,2020/2/3,17:08,35-21.38N,139-41.83E,168,11.547,8.06
1021,2020/2/3,17:09,35-21.07N,139-41.93E,164,11.582,8.06
1022,2020/2/3,17:10,35-20.72N,139-42.05E,164,11.559,8.06
1023,2020/2/3,17:11,35-20.55N,139-42.11E,165,11.523,8.06
1024,2020/2/3,17:12,35-20.30N,139-42.19E,165,11.584,8.06
1025,2020/2/3,17:13,35-20.09N,139-42.26E,163,11.579,8.06
1026,2020/2/3,17:14,35-19.88N,139-42.33E,164,11.527,8.06
1027,2020/2/3,17:15,35-19.64N,139-42.49E,143,11.503,8.06
1028,2020/2/3,17:16,35-19.39N,139-42.71E,145,11.51,8.06
1029,2020/2/3,17:17,35-19.30N,139-42.79E,145,11.463,8.06
1030,2020/2/3,17:18,35-19.09N,139-42.96E,146,11.419,8.06
1031,2020/2/3,17:19,35-18.91N,139-43.11E,145,11.416,8.06
1032,2020/2/3,17:20,35-18.78N,139-43.22E,144,11.41,8.06
1033,2020/2/3,17:21,35-18.56N,139-43.40E,144,11.457,8.06
1034,2020/2/3,17:22,35-18.39N,139-43.56E,144,11.527,8.06
1035,2020/2/3,17:23,35-18.26N,139-43.67E,143,---,8.06
1036,2020/2/3,17:24,35-18.04N,139-43.86E,143,11.63,8.06
1037,2020/2/3,17:25,35-17.90N,139-43.99E,142,11.869,8.06
1038,2020/2/3,17:26,35-17.72N,139-44.16E,142,12.085,8.05
1039,2020/2/3,17:27,35-17.56N,139-44.33E,139,12.084,8.05
1040,2020/2/3,17:28,35-17.41N,139-44.48E,139,12.045,8.05
1041,2020/2/3,17:29,35-17.17N,139-44.71E,142,12.16,8.05
1042,2020/2/3,17:30,35-17.04N,139-44.82E,143,12.251,8.06
1043,2020/2/3,17:32,35-16.63N,139-45.21E,142,12.277,8.05
1044,2020/2/3,17:33,35-16.56N,139-45.28E,142,12.268,8.06
1045,2020/2/3,17:34,35-16.28N,139-45.54E,142,12.137,8.06
1046,2020/2/3,17:35,35-16.21N,139-45.60E,142,12.113,8.05
1047,2020/2/3,17:36,35-15.99N,139-45.81E,142,12.008,8.06
1048,2020/2/3,17:37,35-15.87N,139-45.92E,143,11.964,8.06
1049,2020/2/3,17:38,35-15.65N,139-46.12E,143,11.919,8.06
1050,2020/2/3,17:39,35-15.48N,139-46.24E,152,11.87,8.06
1051,2020/2/3,17:40,35-15.26N,139-46.31E,173,11.845,8.06
1052,2020/2/3,17:41,35-15.06N,139-46.31E,179,11.911,8.06
1053,2020/2/3,17:43,35-14.62N,139-46.32E,179,12.029,8.06
1054,2020/2/3,17:44,35-14.39N,139-46.32E,179,12.037,8.07
1055,2020/2/3,17:45,35-14.19N,139-46.32E,179,11.971,8.06
1056,2020/2/3,17:46,35-13.97N,139-46.32E,179,11.951,8.07
1057,2020/2/3,17:47,35-13.66N,139-46.32E,179,11.902,8.07
1058,2020/2/3,17:48,35-13.53N,139-46.32E,180,11.9,8.07
1059,2020/2/3,17:49,35-13.23N,139-46.32E,180,11.927,8.07
1060,2020/2/3,17:50,35-13.06N,139-46.31E,181,11.947,8.07
1061,2020/2/3,17:51,35-12.76N,139-46.28E,189,11.999,8.07
1062,2020/2/3,17:52,35-12.61N,139-46.24E,192,12.037,8.07
1063,2020/2/3,17:53,35-12.35N,139-46.15E,195,12.114,8.07
1064,2020/2/3,17:54,35-11.85N,139-46.00E,193,12.239,8.07
1065,2020/2/3,17:55,35-11.63N,139-45.93E,193,12.272,8.07
1066,2020/2/3,17:56,35-11.49N,139-45.89E,194,12.291,8.07
1067,2020/2/3,17:57,35-10.90N,139-45.67E,199,12.77,8.07
1068,2020/2/3,17:58,35-10.84N,139-45.64E,199,13.225,8.07
1069,2020/2/3,17:59,35-10.55N,139-45.51E,200,13.348,8.07
1070,2020/2/3,18:00,35-10.26N,139-45.38E,200,14.184,8.07
1071,2020/2/3,18:01,35-09.87N,139-45.20E,201,14.295,8.07
1072,2020/2/3,18:02,35-09.64N,139-45.08E,203,14.058,8.07
1073,2020/2/3,18:03,35-09.24N,139-44.84E,205,13.956,8.08
1074,2020/2/3,18:04,35-09.00N,139-44.70E,206,14.301,8.09
1075,2020/2/3,18:05,35-08.71N,139-44.52E,206,15.122,8.09
1076,2020/2/3,18:06,35-08.40N,139-44.36E,200,15.79,8.09
1077,2020/2/3,18:07,35-07.96N,139-44.18E,197,15.945,8.09
1078,2020/2/3,18:08,35-07.73N,139-44.10E,196,16.068,8.1
1079,2020/2/3,18:09,35-07.32N,139-43.92E,200,16.788,8.1
1080,2020/2/3,18:10,35-07.06N,139-43.80E,203,16.846,8.1
1081,2020/2/3,18:11,35-06.72N,139-43.60E,204,16.825,8.11
1082,2020/2/3,18:12,35-06.33N,139-43.39E,204,16.819,8.11
1083,2020/2/3,18:13,35-06.09N,139-43.25E,204,16.831,8.12
1084,2020/2/3,18:14,35-05.76N,139-43.07E,204,16.823,8.12
1085,2020/2/3,18:15,35-05.39N,139-42.87E,204,16.863,8.12
1086,2020/2/3,18:16,35-05.07N,139-42.66E,210,16.906,8.12
1087,2020/2/3,18:17,35-04.75N,139-42.40E,214,16.869,8.12
1088,2020/2/3,18:18,35-04.48N,139-42.16E,216,16.829,8.13
1089,2020/2/3,18:19,35-04.17N,139-41.90E,213,16.644,8.12
1090,2020/2/3,18:20,35-03.80N,139-41.63E,210,16.303,8.12
1091,2020/2/3,18:21,35-03.51N,139-41.44E,205,16.362,8.12
1092,2020/2/3,18:22,35-03.09N,139-41.22E,203,16.531,8.12
1093,2020/2/3,18:23,35-02.82N,139-41.03E,210,16.753,8.12
1094,2020/2/3,18:24,35-02.48N,139-40.79E,209,16.835,8.12
1095,2020/2/3,18:25,35-02.13N,139-40.57E,207,16.98,8.12
1096,2020/2/3,18:26,35-01.76N,139-40.33E,211,17.101,8.12
1097,2020/2/3,18:27,35-01.47N,139-40.11E,211,17.071,8.12
1098,2020/2/3,18:28,35-01.11N,139-39.83E,213,16.968,8.13
1099,2020/2/3,18:29,35-00.82N,139-39.59E,214,16.895,8.13
1100,2020/2/3,18:30,35-00.51N,139-39.33E,214,17.326,8.12
1101,2020/2/3,18:31,35-00.11N,139-38.99E,214,17.387,8.13
1102,2020/2/3,18:32,34-59.87N,139-38.79E,215,17.357,8.13
1103,2020/2/3,18:33,34-59.56N,139-38.52E,215,---,8.13
1104,2020/2/3,18:34,34-59.21N,139-38.26E,207,17.482,8.12
1105,2020/2/3,18:35,34-58.86N,139-38.12E,195,17.478,8.12
1106,2020/2/3,18:36,34-58.46N,139-38.03E,188,17.5,8.12
1107,2020/2/3,18:37,34-58.11N,139-37.99E,184,17.655,8.12
1108,2020/2/3,18:38,34-57.72N,139-38.10E,160,17.749,8.12
1109,2020/2/3,18:39,34-57.36N,139-38.28E,156,17.816,8.12
1110,2020/2/3,18:40,34-56.98N,139-38.50E,155,17.872,8.12
1111,2020/2/3,18:41,34-56.55N,139-38.75E,152,17.728,8.12
1112,2020/2/3,18:42,34-56.09N,139-39.05E,150,18.037,8.12
1113,2020/2/3,18:43,34-55.84N,139-39.22E,151,18.037,8.12
1114,2020/2/3,18:44,34-55.49N,139-39.45E,151,18.133,8.12
1115,2020/2/3,18:45,34-55.18N,139-39.74E,135,18.173,8.13
1116,2020/2/3,18:46,34-54.92N,139-40.20E,120,18.19,8.12
1117,2020/2/3,18:47,34-54.74N,139-40.60E,118,18.182,8.13
1118,2020/2/3,18:48,34-54.40N,139-41.32E,119,18.166,8.13
1119,2020/2/3,18:49,34-54.20N,139-41.75E,120,18.057,8.13
1120,2020/2/3,18:50,34-54.07N,139-42.02E,119,18.009,8.13
1121,2020/2/3,18:51,34-53.89N,139-42.43E,117,17.821,8.13
1122,2020/2/3,18:52,34-53.63N,139-43.00E,120,17.626,8.13
1123,2020/2/3,18:53,34-53.45N,139-43.36E,122,17.587,8.13
1124,2020/2/3,18:54,34-53.22N,139-43.79E,122,17.448,8.13
1125,2020/2/3,18:55,34-52.97N,139-44.28E,122,---,8.12
1126,2020/2/3,18:56,34-52.72N,139-44.75E,122,17.265,8.12
1127,2020/2/3,18:57,34-52.53N,139-45.09E,123,17.282,8.12
1128,2020/2/3,18:58,34-52.32N,139-45.44E,125,17.164,8.12
1129,2020/2/3,18:59,34-52.10N,139-45.88E,117,17.167,8.12
1130,2020/2/3,19:00,34-51.92N,139-46.39E,112,17.199,8.12
1131,2020/2/3,19:01,34-51.79N,139-46.80E,110,17.236,8.12
1132,2020/2/3,19:02,34-51.65N,139-47.26E,109,17.221,8.12
1133,2020/2/3,19:03,34-51.53N,139-47.68E,108,17.181,8.12
1134,2020/2/3,19:04,34-51.36N,139-48.35E,106,17.269,8.12
1135,2020/2/3,19:05,34-51.29N,139-48.61E,106,17.349,8.12
1136,2020/2/3,19:06,34-51.19N,139-49.02E,107,17.334,8.11
1137,2020/2/3,19:07,34-51.04N,139-49.58E,107,17.187,8.11
1138,2020/2/3,19:08,34-50.93N,139-50.07E,104,16.743,8.12
1139,2020/2/3,19:09,34-50.86N,139-50.39E,104,16.668,8.12
1140,2020/2/3,19:10,34-50.75N,139-50.87E,106,16.669,8.12
1141,2020/2/3,19:11,34-50.66N,139-51.24E,106,16.701,8.11
1142,2020/2/3,19:12,34-50.57N,139-51.65E,104,---,8.1
1143,2020/2/3,19:13,34-50.44N,139-52.25E,105,16.719,8.1
1144,2020/2/3,19:14,34-50.39N,139-52.52E,99,16.697,8.1
1145,2020/2/3,19:15,34-50.39N,139-52.96E,85,16.642,8.09
1146,2020/2/3,19:16,34-50.44N,139-53.49E,83,16.47,8.09
1147,2020/2/3,19:17,34-50.47N,139-53.86E,83,16.372,8.09
1148,2020/2/3,19:18,34-50.61N,139-54.31E,65,16.317,8.09
1149,2020/2/3,19:19,34-50.78N,139-54.79E,67,16.24,8.08
1150,2020/2/3,19:20,34-50.89N,139-55.10E,67,16.164,8.08
1151,2020/2/3,19:21,34-51.11N,139-55.78E,69,16.048,8.08
1152,2020/2/3,19:22,34-51.16N,139-55.95E,69,16.021,8.08
1153,2020/2/3,19:23,34-51.30N,139-56.41E,70,15.986,8.08
1154,2020/2/3,19:25,34-51.53N,139-57.22E,70,15.893,8.07
1155,2020/2/3,19:26,34-51.66N,139-57.63E,67,15.829,8.07
1156,2020/2/3,19:27,34-51.82N,139-58.07E,66,15.77,8.07
1157,2020/2/3,19:28,34-51.96N,139-58.53E,71,15.752,8.07
1158,2020/2/3,19:29,34-52.05N,139-58.90E,74,15.731,8.07
1159,2020/2/3,19:30,34-52.14N,139-59.34E,75,15.601,8.07
1160,2020/2/3,19:31,34-52.25N,139-59.86E,76,15.5,8.07
1161,2020/2/3,19:32,34-52.34N,140-00.34E,77,15.447,8.07
1162,2020/2/3,19:33,34-52.42N,140-00.74E,76,15.388,8.07
1163,2020/2/3,19:34,34-52.54N,140-01.29E,74,---,8.07
1164,2020/2/3,19:35,34-52.64N,140-01.81E,75,15.759,8.07
1165,2020/2/3,19:36,34-52.71N,140-02.13E,76,15.823,8.07
1166,2020/2/3,19:37,34-52.79N,140-02.56E,76,15.873,8.07
1167,2020/2/3,19:38,34-52.89N,140-03.00E,74,15.915,8.07
1168,2020/2/3,19:39,34-52.98N,140-03.35E,71,15.944,8.07
1169,2020/2/3,19:40,34-53.11N,140-03.75E,68,15.962,8.07
1170,2020/2/3,19:41,34-53.24N,140-04.15E,68,15.953,8.07
1171,2020/2/3,19:44,34-53.75N,140-05.72E,67,16.071,8.07
1172,2020/2/3,19:45,34-53.77N,140-05.78E,68,16.075,8.07
1173,2020/2/3,19:46,34-53.90N,140-06.17E,68,16.103,8.07
1174,2020/2/3,19:47,34-54.06N,140-06.68E,68,16.115,8.07
1175,2020/2/3,19:48,34-54.16N,140-07.00E,69,16.128,8.07
1176,2020/2/3,19:49,34-54.30N,140-07.43E,69,16.151,8.07
1177,2020/2/3,19:50,34-54.44N,140-07.87E,68,16.177,8.07
1178,2020/2/3,19:51,34-54.55N,140-08.21E,68,16.192,8.07
1179,2020/2/3,19:52,34-54.70N,140-08.67E,68,16.189,8.08
1180,2020/2/3,19:53,34-54.82N,140-09.03E,67,16.175,8.08
1181,2020/2/3,19:54,34-54.95N,140-09.43E,68,16.136,8.09
1182,2020/2/3,19:55,34-55.09N,140-09.85E,67,16.105,8.09
1183,2020/2/3,19:56,34-55.25N,140-10.33E,68,16.033,8.09
1184,2020/2/3,19:57,34-55.37N,140-10.71E,67,16.068,8.09
1185,2020/2/3,19:58,34-55.56N,140-11.25E,67,16.126,8.1
1186,2020/2/3,19:59,34-55.66N,140-11.52E,64,16.152,8.1
1187,2020/2/3,20:00,34-55.86N,140-11.96E,60,16.206,8.1
1188,2020/2/3,20:01,34-56.05N,140-12.36E,59,16.229,8.09
1189,2020/2/3,20:02,34-56.30N,140-12.85E,58,16.227,8.1
1190,2020/2/3,20:03,34-56.47N,140-13.20E,58,16.228,8.09
1191,2020/2/3,20:04,34-56.61N,140-13.48E,58,16.237,8.1
1192,2020/2/3,20:05,34-56.84N,140-13.92E,57,16.276,8.1
1193,2020/2/3,20:06,34-57.04N,140-14.32E,58,16.306,8.1
1194,2020/2/3,20:07,34-57.27N,140-14.77E,58,16.357,8.1
1195,2020/2/3,20:08,34-57.40N,140-15.02E,58,16.387,8.1
1196,2020/2/3,20:09,34-57.56N,140-15.34E,57,16.438,8.1
1197,2020/2/3,20:10,34-57.79N,140-15.79E,58,16.513,8.1
1198,2020/2/3,20:11,34-57.94N,140-16.09E,57,16.578,8.1
1199,2020/2/3,20:12,34-58.17N,140-16.53E,59,16.577,8.1
1200,2020/2/3,20:13,34-58.35N,140-16.90E,58,16.61,8.1
1201,2020/2/3,20:14,34-58.53N,140-17.27E,58,16.648,8.1
1202,2020/2/3,20:15,34-58.70N,140-17.61E,58,16.68,8.1
1203,2020/2/3,20:16,34-58.91N,140-18.01E,59,16.711,8.1
1204,2020/2/3,20:17,34-59.14N,140-18.49E,59,16.751,8.1
1205,2020/2/3,20:18,34-59.29N,140-18.78E,58,16.766,8.1
1206,2020/2/3,20:19,34-59.50N,140-19.21E,59,16.783,8.1
1207,2020/2/3,20:20,34-59.78N,140-19.76E,59,16.787,8.1
1208,2020/2/3,20:21,34-59.84N,140-19.89E,58,16.788,8.1
1209,2020/2/3,20:22,35-00.03N,140-20.27E,58,16.789,8.1
1210,2020/2/3,20:23,35-00.26N,140-20.73E,58,16.739,8.1
1211,2020/2/3,20:24,35-00.41N,140-21.03E,58,16.689,8.1
1212,2020/2/3,20:25,35-00.63N,140-21.46E,57,16.64,8.1
1213,2020/2/3,20:26,35-00.89N,140-21.99E,58,16.555,8.1
1214,2020/2/3,20:27,35-01.04N,140-22.28E,58,16.512,8.1
1215,2020/2/3,20:28,35-01.25N,140-22.69E,58,16.444,8.1
1216,2020/2/3,20:29,35-01.40N,140-22.99E,57,16.429,8.1
1217,2020/2/3,20:30,35-01.75N,140-23.66E,57,16.468,8.1
1218,2020/2/3,20:31,35-01.76N,140-23.69E,57,16.469,8.1
1219,2020/2/3,20:32,35-01.98N,140-24.12E,57,16.469,8.1
1220,2020/2/3,20:33,35-02.16N,140-24.48E,57,16.474,8.1
1221,2020/2/3,20:34,35-02.39N,140-24.92E,58,16.473,8.1
1222,2020/2/3,20:35,35-02.54N,140-25.22E,58,16.489,8.1
1223,2020/2/3,20:38,35-03.09N,140-26.33E,58,16.566,8.1
1224,2020/2/3,20:39,35-03.30N,140-26.76E,58,16.597,8.1
1225,2020/2/3,20:40,35-03.49N,140-27.13E,59,16.621,8.1
1226,2020/2/3,20:41,35-03.75N,140-27.66E,58,16.648,8.1
1227,2020/2/3,20:42,35-03.85N,140-27.87E,59,16.658,8.1
1228,2020/2/3,20:43,35-04.01N,140-28.19E,58,16.684,8.1
1229,2020/2/3,20:44,35-04.20N,140-28.57E,58,16.74,8.1
1230,2020/2/3,20:45,35-04.40N,140-28.96E,58,16.89,8.1
1231,2020/2/3,20:46,35-04.57N,140-29.30E,59,16.978,8.1
1232,2020/2/3,20:47,35-04.78N,140-29.72E,58,17.05,8.1
1233,2020/2/3,20:48,35-05.06N,140-30.27E,58,17.113,8.1
1234,2020/2/3,20:49,35-05.17N,140-30.48E,58,17.143,8.1
1235,2020/2/3,20:50,35-05.38N,140-30.89E,58,17.204,8.11
1236,2020/2/3,20:51,35-05.55N,140-31.23E,58,17.237,8.11
1237,2020/2/3,20:52,35-05.85N,140-31.53E,26,17.257,8.11
1238,2020/2/3,20:54,35-06.54N,140-32.00E,30,17.314,8.11
1239,2020/2/3,20:55,35-06.91N,140-32.27E,31,17.329,8.11
1240,2020/2/3,20:56,35-07.22N,140-32.51E,32,17.336,8.11
1241,2020/2/3,20:57,35-07.35N,140-32.61E,33,17.336,8.11
1242,2020/2/3,20:59,35-07.96N,140-33.10E,34,17.317,8.11
1243,2020/2/3,21:00,35-08.39N,140-33.46E,34,17.311,8.12
1244,2020/2/3,21:01,35-08.57N,140-33.61E,33,17.312,8.12
1245,2020/2/3,21:02,35-08.90N,140-33.88E,34,17.299,8.12
1246,2020/2/3,21:03,35-09.16N,140-34.19E,54,17.258,8.11
1247,2020/2/3,21:04,35-09.36N,140-34.56E,52,17.265,8.11
1248,2020/2/3,21:05,35-09.71N,140-34.99E,43,17.241,8.11
1249,2020/2/3,21:06,35-09.91N,140-35.22E,44,17.243,8.11
1250,2020/2/3,21:07,35-10.17N,140-35.53E,45,17.252,8.11
1251,2020/2/3,21:08,35-10.44N,140-35.81E,35,17.232,8.11
1252,2020/2/3,21:09,35-10.89N,140-36.17E,33,17.116,8.11
1253,2020/2/3,21:10,35-11.08N,140-36.32E,33,17.083,8.11
1254,2020/2/3,21:11,35-11.47N,140-36.64E,34,17.03,8.11
1255,2020/2/3,21:12,35-11.85N,140-36.96E,34,16.958,8.11
1256,2020/2/3,21:13,35-11.99N,140-37.08E,35,16.942,8.11
1257,2020/2/3,21:14,35-12.33N,140-37.39E,36,16.856,8.1
1258,2020/2/3,21:15,35-12.82N,140-37.83E,36,16.749,8.1
1259,2020/2/3,21:17,35-13.26N,140-38.22E,36,16.732,8.1
1260,2020/2/3,21:18,35-13.57N,140-38.50E,36,16.743,8.1
1261,2020/2/3,21:19,35-13.90N,140-38.79E,36,16.72,8.1
1262,2020/2/3,21:20,35-14.17N,140-39.03E,36,16.693,8.1
1263,2020/2/3,21:21,35-14.50N,140-39.33E,36,16.703,8.1
1264,2020/2/3,21:22,35-14.79N,140-39.59E,36,16.707,8.11
1265,2020/2/3,21:23,35-15.17N,140-39.93E,36,16.708,8.11
1266,2020/2/3,21:24,35-15.62N,140-40.34E,36,16.701,8.1
1267,2020/2/3,21:25,35-15.77N,140-40.48E,36,16.69,8.1
1268,2020/2/3,21:26,35-16.11N,140-40.79E,36,16.669,8.11
1269,2020/2/3,21:27,35-16.35N,140-41.00E,36,16.657,8.1
1270,2020/2/3,21:28,35-16.81N,140-41.41E,35,16.568,8.1
1271,2020/2/3,21:29,35-17.06N,140-41.62E,35,16.48,8.1
1272,2020/2/3,21:30,35-17.37N,140-41.90E,36,16.334,8.1
1273,2020/2/3,21:31,35-17.63N,140-42.14E,36,16.281,8.1
1274,2020/2/3,21:32,35-17.99N,140-42.46E,36,16.263,8.1
1275,2020/2/3,21:33,35-18.31N,140-42.75E,36,16.264,8.1
1276,2020/2/3,21:34,35-18.63N,140-43.03E,36,16.265,8.1
1277,2020/2/3,21:36,35-19.35N,140-43.67E,35,16.26,8.1
1278,2020/2/3,21:37,35-19.54N,140-43.83E,35,16.231,8.1
1279,2020/2/3,21:38,35-20.05N,140-44.26E,34,16.188,8.1
1280,2020/2/3,21:39,35-20.32N,140-44.50E,34,16.144,8.1
1281,2020/2/3,21:40,35-20.41N,140-44.58E,34,16.108,8.1
1282,2020/2/3,21:41,35-20.79N,140-44.89E,34,15.961,8.1
1283,2020/2/3,21:42,35-21.15N,140-45.19E,34,15.776,8.1
1284,2020/2/3,21:43,35-21.43N,140-45.43E,34,15.792,8.1
1285,2020/2/3,21:44,35-21.67N,140-45.63E,34,15.836,8.09
1286,2020/2/3,21:45,35-21.98N,140-45.89E,34,15.924,8.08
1287,2020/2/3,21:46,35-22.40N,140-46.24E,33,16.028,8.08
1288,2020/2/3,21:47,35-22.77N,140-46.54E,34,16.121,8.08
1289,2020/2/3,21:48,35-23.11N,140-46.81E,33,16.186,8.08
1290,2020/2/3,21:49,35-23.21N,140-46.90E,33,16.206,8.08
1291,2020/2/3,21:50,35-23.65N,140-47.27E,34,16.33,8.08
1292,2020/2/3,21:51,35-23.91N,140-47.48E,34,16.389,8.08
1293,2020/2/3,21:52,35-24.24N,140-47.75E,33,16.46,8.09
1294,2020/2/3,21:53,35-24.46N,140-47.93E,33,16.486,8.09
1295,2020/2/3,21:54,35-24.80N,140-48.21E,33,16.525,8.1
1296,2020/2/3,21:55,35-25.07N,140-48.44E,34,16.539,8.1
1297,2020/2/3,21:56,35-25.46N,140-48.76E,34,16.576,8.1
1298,2020/2/3,21:57,35-25.68N,140-48.94E,33,16.555,8.1
1299,2020/2/3,21:58,35-26.01N,140-49.22E,34,16.478,8.1
1300,2020/2/3,21:59,35-26.43N,140-49.53E,29,16.471,8.1
1301,2020/2/3,22:00,35-26.64N,140-49.66E,27,16.48,8.1
1302,2020/2/3,22:01,35-27.00N,140-49.88E,26,16.486,8.1
1303,2020/2/3,22:02,35-27.39N,140-50.12E,26,16.481,8.1
1304,2020/2/3,22:03,35-27.69N,140-50.30E,26,16.333,8.1
1305,2020/2/3,22:05,35-28.36N,140-50.71E,25,16.225,8.1
1306,2020/2/3,22:06,35-28.72N,140-50.93E,27,15.394,8.1
1307,2020/2/3,22:07,35-28.98N,140-51.09E,26,14.718,8.1
1308,2020/2/3,22:08,35-29.42N,140-51.37E,27,14.486,8.1
1309,2020/2/3,22:09,35-29.74N,140-51.57E,26,14.497,8.11
1310,2020/2/3,22:10,35-30.06N,140-51.77E,26,14.471,8.11
1311,2020/2/3,22:11,35-30.28N,140-51.91E,28,14.444,8.1
1312,2020/2/3,22:12,35-30.73N,140-52.24E,32,14.295,8.1
1313,2020/2/3,22:13,35-30.92N,140-52.39E,32,14.318,8.1
1314,2020/2/3,22:14,35-31.25N,140-52.65E,33,14.546,8.1
1315,2020/2/3,22:15,35-31.54N,140-52.88E,32,14.794,8.09
1316,2020/2/3,22:16,35-32.04N,140-53.28E,32,14.91,8.08
1317,2020/2/3,22:17,35-32.29N,140-53.47E,32,14.931,8.08
1318,2020/2/3,22:18,35-32.74N,140-53.83E,32,15.011,8.08
1319,2020/2/3,22:19,35-32.97N,140-54.02E,33,14.944,8.08
1320,2020/2/3,22:20,35-33.29N,140-54.28E,32,14.909,8.08
1321,2020/2/3,22:21,35-33.55N,140-54.48E,32,14.909,8.1
1322,2020/2/3,22:22,35-33.79N,140-54.66E,32,14.917,8.1
1323,2020/2/3,22:23,35-34.00N,140-54.83E,32,14.915,8.1
1324,2020/2/3,22:24,35-34.41N,140-55.13E,28,14.945,8.11
1325,2020/2/3,22:25,35-34.63N,140-55.26E,26,14.947,8.11
1326,2020/2/3,22:27,35-35.48N,140-55.74E,21,14.94,8.11
1327,2020/2/3,22:28,35-35.72N,140-55.84E,20,14.941,8.1
1328,2020/2/3,22:31,35-36.67N,140-56.25E,18,14.894,8.11
1329,2020/2/3,22:32,35-37.04N,140-56.41E,18,14.848,8.11
1330,2020/2/3,22:34,35-37.94N,140-56.74E,11,14.901,8.11
1331,2020/2/3,22:35,35-38.03N,140-56.76E,10,14.906,8.11
1332,2020/2/3,22:36,35-38.44N,140-56.84E,8,14.939,8.11
1333,2020/2/3,22:38,35-39.14N,140-56.97E,8,15.006,8.12
1334,2020/2/3,22:39,35-39.56N,140-57.04E,8,15.103,8.12
1335,2020/2/3,22:40,35-39.89N,140-57.10E,8,15.219,8.12
1336,2020/2/3,22:41,35-40.37N,140-57.19E,7,15.347,8.11
1337,2020/2/3,22:42,35-40.70N,140-57.24E,8,15.376,8.11
1338,2020/2/3,22:43,35-40.89N,140-57.28E,8,15.386,8.11
1339,2020/2/3,22:44,35-41.25N,140-57.34E,8,15.403,8.11
1340,2020/2/3,22:45,35-41.71N,140-57.42E,8,15.437,8.11
1341,2020/2/3,22:46,35-41.93N,140-57.47E,8,15.457,8.11
1342,2020/2/3,22:47,35-42.29N,140-57.53E,7,15.488,8.1
1343,2020/2/3,22:48,35-42.72N,140-57.60E,8,15.576,8.1
1344,2020/2/3,22:49,35-43.04N,140-57.66E,7,15.738,8.1
1345,2020/2/3,22:50,35-43.37N,140-57.71E,8,15.819,8.1
1346,2020/2/3,22:51,35-43.71N,140-57.77E,6,15.855,8.1
1347,2020/2/3,22:53,35-44.58N,140-57.87E,4,15.789,8.1
1348,2020/2/3,22:54,35-45.09N,140-57.93E,4,15.749,8.09
1349,2020/2/3,22:55,35-45.25N,140-57.95E,5,15.731,8.08
1350,2020/2/3,22:56,35-45.66N,140-57.99E,4,15.717,8.09
1351,2020/2/3,22:58,35-46.30N,140-58.06E,4,15.859,8.09
1352,2020/2/3,22:59,35-46.80N,140-58.11E,4,15.919,8.1
1353,2020/2/3,23:02,35-47.69N,140-58.21E,4,15.984,8.09
1354,2020/2/3,23:03,35-48.17N,140-58.25E,3,16.017,8.1
1355,2020/2/3,23:04,35-48.43N,140-58.27E,3,16.035,8.1
1356,2020/2/3,23:05,35-48.79N,140-58.30E,3,16.04,8.1
1357,2020/2/3,23:06,35-49.18N,140-58.32E,3,16.043,8.1
1358,2020/2/3,23:07,35-49.72N,140-58.36E,2,16.071,8.1
1359,2020/2/3,23:08,35-49.88N,140-58.37E,3,16.08,8.1
1360,2020/2/3,23:09,35-50.30N,140-58.41E,3,16.092,8.1
1361,2020/2/3,23:10,35-50.71N,140-58.44E,3,16.065,8.1
1362,2020/2/3,23:12,35-51.39N,140-58.49E,3,15.958,8.09
1363,2020/2/3,23:13,35-51.77N,140-58.52E,3,15.907,8.09
1364,2020/2/3,23:14,35-52.12N,140-58.55E,4,15.835,8.1
1365,2020/2/3,23:15,35-52.65N,140-58.59E,3,15.802,8.1
1366,2020/2/3,23:16,35-53.04N,140-58.62E,3,15.795,8.1
1367,2020/2/3,23:18,35-53.56N,140-58.65E,3,15.763,8.11
1368,2020/2/3,23:19,35-54.05N,140-58.70E,4,15.708,8.11
1369,2020/2/3,23:20,35-54.46N,140-58.74E,5,15.627,8.11
1370,2020/2/3,23:22,35-55.11N,140-58.82E,4,15.445,8.11
1371,2020/2/3,23:23,35-55.57N,140-58.86E,4,15.459,8.11
1372,2020/2/3,23:24,35-55.77N,140-58.88E,4,15.466,8.11
1373,2020/2/3,23:25,35-56.16N,140-58.93E,6,15.429,8.11
1374,2020/2/3,23:26,35-56.52N,140-58.99E,7,15.371,8.11
1375,2020/2/3,23:28,35-57.28N,140-59.11E,6,15.215,8.1